Showing default

PIAST-S2, 66757

Orbit data source: Space-Track

PIAST-S2, 66757 is a Polish payload satellite in SSO that was launched on Fri, 28 Nov 2025 UTC via an FALCON 9 launch vehicle from the Air Force Western Test Range (AFWTR). Payload-class satellites include a variety of spacecraft equipped with specific instruments for various scientific and technological missions. These include communications satellites like Starlink; space stations such as the ISS; scientific satellites like the Hubble; Earth observation satellites from companies like Planet Labs, Umbra, and HawkEye 360; GPS; miniature CubeSats for education and research; and military/defense satellites.

Loading next visibility...
Identifier
66757, 2025-276CV
Orbit
SSO
Country
Flag of PLPL / POL
Related business
Manufacturer
CREO
Mission
Operational Amateur Imaging
Bus & Motor
CUBESAT 6U, Unknown motor
Mass
12 kg wet, 12 kg dry
Launch date (UTC)
2025-11-28 (6 months ago)
Launch vehicle
FALCON 9
Launch site
Air Force Western Test Range (AFWTR)
Object type
Payload
Rocket body
Debris
Shape & HBR
Box + 1 Pan, 0.1 m
Radar Cross Section
0.080 m²

Expand to show TLE details & history
Last TLE update: 1 day ago

TLE from 1 day ago
0 PIAST-S2
1 66757U 25276CV  26144.09458882  .00004673  00000-0  21884-3 0  9990
2 66757  97.4218 218.2533 0002756  68.6541 291.4988 15.20203554 26778
Epoch: 2026-05-24T02:16Z
TLE epoch observation values (Epoch: 2026-05-24T02:16:12.474Z)
Latitude
-0.00001°
Longitude
-57.50034°
Altitude
507.621 km
Speed
7.611 km/s
True Right ascension
14h 33m 00s
True Declination
0° 00' 00"
Sunlit
Object was in full shadow at epoch
Visualization orbit readout
Latitude
Unknown
Longitude
Unknown
Altitude
Unknown
Speed
Unknown
Apparent Right ascension
Unknown
Apparent Declination
Unknown
Sunlit
N/A
Visualization observer readout
Local Sidereal Time
13:39:38
Azimuth
Unknown
Elevation
Unknown
Doppler factor
Unknown
Orbital elements
Apogee altitude
504.089 km
Perigee altitude
500.296 km
Semi-major axis
6,880.329 km
Eccentricity
0.00028
Inclination
97.4218°
RAAN
218.2533°
Arg. of periapsis
68.6541°
True anomaly
291.46941°
Mean anomaly
291.4988°
Eccentric anomaly
291.48411°
Mean motion
3.80303 °/min
Orbital period
94.66 mins
BSTAR
0.00021884
Loading maneuver chart data...
Computing Atmospheric mass density...
Loading historical data...
Loading historical data...
Loading historical data...
Loading historical data...
Loading historical data...
Loading historical data...
Loading historical data...

Documentation

Showing up to 5 results
|